Time,TemperatureF,DewpointF,PressureIn,WindDirection,WindDirectionDegrees,WindSpeedMPH,WindSpeedGustMPH,Humidity,HourlyPrecipIn,Conditions,Clouds,dailyrainin,SoftwareType,DateUTC
2013-09-04 00:03:00,55.5,54.4,30.07,WNW,296,0.0,0.0,96,0.00,,,0.00,Wunderground v.1.15,2013-09-04 04:03:00,
2013-09-04 00:08:00,55.4,54.3,30.07,WNW,296,0.0,0.0,96,0.00,,,0.00,Wunderground v.1.15,2013-09-04 04:08:00,
2013-09-04 00:18:00,55.1,54.0,30.07,WNW,296,0.0,0.0,96,0.00,,,0.00,Wunderground v.1.15,2013-09-04 04:18:00,
2013-09-04 00:23:00,54.8,53.4,30.07,WNW,296,0.0,0.0,95,0.00,,,0.00,Wunderground v.1.15,2013-09-04 04:23:00,
2013-09-04 00:28:00,54.6,53.5,30.07,WNW,296,0.0,0.0,96,0.00,,,0.00,Wunderground v.1.15,2013-09-04 04:28:00,
2013-09-04 00:33:00,54.5,53.4,30.07,WNW,296,0.0,0.0,96,0.00,,,0.00,Wunderground v.1.15,2013-09-04 04:33:00,
2013-09-04 00:43:00,54.1,53.0,30.07,WNW,296,0.0,0.0,96,0.00,,,0.00,Wunderground v.1.15,2013-09-04 04:43:00,
2013-09-04 00:48:00,53.9,52.8,30.07,WNW,296,0.0,0.0,96,0.00,,,0.00,Wunderground v.1.15,2013-09-04 04:48:00,
2013-09-04 00:53:00,53.8,52.7,30.07,WNW,296,0.0,0.0,96,0.00,,,0.00,Wunderground v.1.15,2013-09-04 04:53:00,
2013-09-04 01:03:00,53.5,52.4,30.07,WNW,296,0.0,0.0,96,0.00,,,0.00,Wunderground v.1.15,2013-09-04 05:03:00,
2013-09-04 01:08:00,53.4,52.3,30.07,WNW,296,0.0,0.0,96,0.00,,,0.00,Wunderground v.1.15,2013-09-04 05:08:00,
2013-09-04 01:13:00,53.4,52.3,30.07,WNW,296,0.0,0.0,96,0.00,,,0.00,Wunderground v.1.15,2013-09-04 05:13:00,
2013-09-04 01:23:00,53.4,52.3,30.07,WNW,296,0.0,0.0,96,0.00,,,0.00,Wunderground v.1.15,2013-09-04 05:23:00,
2013-09-04 01:28:00,53.2,52.1,30.07,WNW,296,0.0,0.0,96,0.00,,,0.00,Wunderground v.1.15,2013-09-04 05:28:00,
2013-09-04 01:33:00,53.1,52.0,30.07,WNW,296,0.0,0.0,96,0.00,,,0.00,Wunderground v.1.15,2013-09-04 05:33:00,
2013-09-04 01:38:00,53.0,51.9,30.07,WNW,296,0.0,0.0,96,0.00,,,0.00,Wunderground v.1.15,2013-09-04 05:38:00,
2013-09-04 01:48:00,52.7,51.6,30.07,WNW,296,0.0,0.0,96,0.00,,,0.00,Wunderground v.1.15,2013-09-04 05:48:00,
2013-09-04 01:53:00,52.5,51.4,30.07,WNW,296,0.0,0.0,96,0.00,,,0.00,Wunderground v.1.15,2013-09-04 05:53:00,
2013-09-04 01:58:00,52.4,51.3,30.07,WNW,296,0.0,0.0,96,0.00,,,0.00,Wunderground v.1.15,2013-09-04 05:58:00,
2013-09-04 02:03:00,52.3,51.2,30.07,WNW,296,0.0,0.0,96,0.00,,,0.00,Wunderground v.1.15,2013-09-04 06:03:00,
2013-09-04 02:13:00,52.0,50.9,30.07,WNW,296,0.0,0.0,96,0.00,,,0.00,Wunderground v.1.15,2013-09-04 06:13:00,
2013-09-04 02:18:00,51.9,50.8,30.08,WNW,296,0.0,0.0,96,0.00,,,0.00,Wunderground v.1.15,2013-09-04 06:18:00,
2013-09-04 02:23:00,51.7,50.6,30.07,WNW,296,0.0,0.0,96,0.00,,,0.00,Wunderground v.1.15,2013-09-04 06:23:00,
2013-09-04 02:28:00,51.7,50.6,30.07,WNW,296,0.0,0.0,96,0.00,,,0.00,Wunderground v.1.15,2013-09-04 06:28:00,
2013-09-04 02:33:00,51.5,50.4,30.08,WNW,296,0.0,0.0,96,0.00,,,0.00,Wunderground v.1.15,2013-09-04 06:33:00,
2013-09-04 02:43:00,51.4,50.3,30.08,WNW,296,0.0,0.0,96,0.00,,,0.00,Wunderground v.1.15,2013-09-04 06:43:00,
2013-09-04 02:48:00,51.3,50.5,30.08,WNW,296,0.0,0.0,97,0.00,,,0.00,Wunderground v.1.15,2013-09-04 06:48:00,
2013-09-04 02:53:00,51.2,50.4,30.08,WNW,296,0.0,0.0,97,0.00,,,0.00,Wunderground v.1.15,2013-09-04 06:53:00,
2013-09-04 02:58:00,51.2,50.4,30.08,WNW,296,0.0,0.0,97,0.00,,,0.00,Wunderground v.1.15,2013-09-04 06:58:00,
2013-09-04 03:08:00,51.0,50.2,30.08,WNW,296,0.0,0.0,97,0.00,,,0.00,Wunderground v.1.15,2013-09-04 07:08:00,
2013-09-04 03:13:00,50.9,50.1,30.08,WNW,296,0.0,0.0,97,0.00,,,0.00,Wunderground v.1.15,2013-09-04 07:13:00,
2013-09-04 03:18:00,50.9,50.1,30.08,WNW,296,0.0,0.0,97,0.00,,,0.00,Wunderground v.1.15,2013-09-04 07:18:00,
2013-09-04 03:23:00,50.8,50.0,30.08,WNW,296,0.0,0.0,97,0.00,,,0.00,Wunderground v.1.15,2013-09-04 07:23:00,
2013-09-04 03:28:00,50.7,49.9,30.08,WNW,296,0.0,0.0,97,0.00,,,0.00,Wunderground v.1.15,2013-09-04 07:28:00,
2013-09-04 03:38:00,50.5,49.7,30.08,WNW,296,0.0,0.0,97,0.00,,,0.00,Wunderground v.1.15,2013-09-04 07:38:00,
2013-09-04 03:43:00,50.4,49.6,30.08,WNW,296,0.0,0.0,97,0.00,,,0.00,Wunderground v.1.15,2013-09-04 07:43:00,
2013-09-04 03:48:00,50.3,49.5,30.08,WNW,296,0.0,0.0,97,0.00,,,0.00,Wunderground v.1.15,2013-09-04 07:48:00,
2013-09-04 03:58:00,50.2,49.4,30.08,WNW,296,0.0,0.0,97,0.00,,,0.00,Wunderground v.1.15,2013-09-04 07:58:00,
2013-09-04 04:03:00,50.1,49.3,30.08,WNW,296,0.0,0.0,97,0.00,,,0.00,Wunderground v.1.15,2013-09-04 08:03:00,
2013-09-04 04:08:00,50.0,49.2,30.08,WNW,296,0.0,0.0,97,0.00,,,0.00,Wunderground v.1.15,2013-09-04 08:08:00,
2013-09-04 04:18:00,50.0,49.2,30.09,WNW,296,0.0,0.0,97,0.00,,,0.00,Wunderground v.1.15,2013-09-04 08:18:00,
2013-09-04 04:23:00,50.2,49.7,30.09,WNW,296,0.0,0.0,98,0.00,,,0.00,Wunderground v.1.15,2013-09-04 08:23:00,
2013-09-04 04:28:00,50.4,49.9,30.09,WNW,296,0.0,0.0,98,0.00,,,0.00,Wunderground v.1.15,2013-09-04 08:28:00,
2013-09-04 04:33:00,50.6,50.1,30.09,WNW,296,0.0,0.0,98,0.00,,,0.00,Wunderground v.1.15,2013-09-04 08:33:00,
2013-09-04 04:43:00,50.8,50.3,30.09,WNW,296,0.0,0.0,98,0.00,,,0.00,Wunderground v.1.15,2013-09-04 08:43:00,
2013-09-04 04:48:00,50.8,50.3,30.09,WNW,296,0.0,0.0,98,0.00,,,0.00,Wunderground v.1.15,2013-09-04 08:48:00,
2013-09-04 04:53:00,50.8,50.3,30.09,WNW,296,0.0,0.0,98,0.00,,,0.00,Wunderground v.1.15,2013-09-04 08:53:00,
2013-09-04 04:58:00,50.6,49.8,30.09,WNW,296,0.0,0.0,97,0.00,,,0.00,Wunderground v.1.15,2013-09-04 08:58:00,
2013-09-04 05:03:00,50.5,49.7,30.09,WNW,296,0.0,0.0,97,0.00,,,0.00,Wunderground v.1.15,2013-09-04 09:03:00,
2013-09-04 05:13:00,50.4,49.6,30.09,WNW,296,0.0,0.0,97,0.00,,,0.00,Wunderground v.1.15,2013-09-04 09:13:00,
2013-09-04 05:18:00,50.3,49.5,30.10,WNW,296,0.0,0.0,97,0.00,,,0.00,Wunderground v.1.15,2013-09-04 09:18:00,
2013-09-04 05:23:00,50.1,49.3,30.09,WNW,296,0.0,0.0,97,0.00,,,0.00,Wunderground v.1.15,2013-09-04 09:23:00,
2013-09-04 05:33:00,50.3,49.8,30.10,WNW,296,0.0,0.0,98,0.00,,,0.00,Wunderground v.1.15,2013-09-04 09:33:00,
2013-09-04 05:43:00,51.0,50.5,30.10,WNW,296,0.0,0.0,98,0.00,,,0.00,Wunderground v.1.15,2013-09-04 09:43:00,
2013-09-04 05:48:00,51.2,50.7,30.10,WNW,296,0.0,0.0,98,0.00,,,0.00,Wunderground v.1.15,2013-09-04 09:48:00,
2013-09-04 05:53:00,51.4,50.9,30.10,WNW,296,0.0,0.0,98,0.00,,,0.00,Wunderground v.1.15,2013-09-04 09:53:00,
2013-09-04 06:03:00,51.4,50.9,30.11,WNW,296,0.0,0.0,98,0.00,,,0.00,Wunderground v.1.15,2013-09-04 10:03:00,
2013-09-04 06:13:00,51.2,50.7,30.11,WNW,296,0.0,0.0,98,0.00,,,0.00,Wunderground v.1.15,2013-09-04 10:13:00,
2013-09-04 06:18:00,51.1,50.6,30.11,WNW,296,0.0,0.0,98,0.00,,,0.00,Wunderground v.1.15,2013-09-04 10:18:00,
2013-09-04 06:28:00,50.8,50.0,30.11,WNW,296,0.0,0.0,97,0.00,,,0.00,Wunderground v.1.15,2013-09-04 10:28:00,
2013-09-04 06:33:00,50.8,50.3,30.12,WNW,296,0.0,0.0,98,0.00,,,0.00,Wunderground v.1.15,2013-09-04 10:33:00,
2013-09-04 06:43:00,50.6,50.1,30.12,WNW,296,0.0,0.0,98,0.00,,,0.00,Wunderground v.1.15,2013-09-04 10:43:00,
2013-09-04 06:48:00,50.6,50.1,30.12,WNW,296,0.0,0.0,98,0.00,,,0.00,Wunderground v.1.15,2013-09-04 10:48:00,
2013-09-04 06:53:00,50.6,50.1,30.12,WNW,296,0.0,0.0,98,0.00,,,0.00,Wunderground v.1.15,2013-09-04 10:53:00,
2013-09-04 06:58:00,50.6,50.1,30.12,WNW,296,0.0,0.0,98,0.00,,,0.00,Wunderground v.1.15,2013-09-04 10:58:00,
2013-09-04 07:08:00,50.6,50.1,30.13,WNW,296,0.0,0.0,98,0.00,,,0.00,Wunderground v.1.15,2013-09-04 11:08:00,
2013-09-04 07:13:00,50.6,50.1,30.13,WNW,296,0.0,0.0,98,0.00,,,0.00,Wunderground v.1.15,2013-09-04 11:13:00,
2013-09-04 07:18:00,50.6,50.1,30.13,WNW,296,0.0,0.0,98,0.00,,,0.00,Wunderground v.1.15,2013-09-04 11:18:00,
2013-09-04 07:28:00,50.5,50.0,30.14,WNW,296,0.0,0.0,98,0.00,,,0.00,Wunderground v.1.15,2013-09-04 11:28:00,
2013-09-04 07:33:00,50.5,50.0,30.14,WNW,296,0.0,0.0,98,0.00,,,0.00,Wunderground v.1.15,2013-09-04 11:33:00,
2013-09-04 07:38:00,50.5,50.0,30.15,WNW,296,0.0,0.0,98,0.00,,,0.00,Wunderground v.1.15,2013-09-04 11:38:00,
2013-09-04 07:48:00,50.4,49.9,30.15,WNW,296,0.0,0.0,98,0.00,,,0.00,Wunderground v.1.15,2013-09-04 11:48:00,
2013-09-04 07:53:00,50.4,49.9,30.15,WNW,296,0.0,0.0,98,0.00,,,0.00,Wunderground v.1.15,2013-09-04 11:53:00,
2013-09-04 07:58:00,50.4,49.9,30.16,WNW,296,0.0,0.0,98,0.00,,,0.00,Wunderground v.1.15,2013-09-04 11:58:00,
2013-09-04 08:03:00,50.4,49.9,30.16,WNW,296,0.0,0.0,98,0.00,,,0.00,Wunderground v.1.15,2013-09-04 12:03:00,
2013-09-04 08:13:00,50.7,50.2,30.16,WNW,296,0.0,0.0,98,0.00,,,0.00,Wunderground v.1.15,2013-09-04 12:13:00,
2013-09-04 08:18:00,50.8,50.3,30.16,WNW,296,0.0,0.0,98,0.00,,,0.00,Wunderground v.1.15,2013-09-04 12:18:00,
2013-09-04 08:23:00,50.9,50.4,30.16,WNW,296,0.0,0.0,98,0.00,,,0.00,Wunderground v.1.15,2013-09-04 12:23:00,
2013-09-04 08:33:00,51.2,50.7,30.16,WNW,296,0.0,0.0,98,0.00,,,0.00,Wunderground v.1.15,2013-09-04 12:33:00,
2013-09-04 08:38:00,51.4,50.9,30.16,WNW,296,0.0,0.0,98,0.00,,,0.00,Wunderground v.1.15,2013-09-04 12:38:00,
2013-09-04 08:43:00,51.6,51.1,30.16,WNW,296,0.0,0.0,98,0.00,,,0.00,Wunderground v.1.15,2013-09-04 12:43:00,
2013-09-04 08:48:00,51.9,51.4,30.16,WNW,296,0.0,0.0,98,0.00,,,0.00,Wunderground v.1.15,2013-09-04 12:48:00,
2013-09-04 08:58:00,52.1,51.8,30.16,WNW,296,0.0,0.0,99,0.00,,,0.00,Wunderground v.1.15,2013-09-04 12:58:00,
2013-09-04 09:03:00,52.2,51.7,30.16,WNW,296,0.0,0.0,98,0.00,,,0.00,Wunderground v.1.15,2013-09-04 13:03:00,
2013-09-04 09:08:00,52.4,51.9,30.17,WNW,296,0.0,0.0,98,0.00,,,0.00,Wunderground v.1.15,2013-09-04 13:08:00,
2013-09-04 09:13:00,52.7,52.4,30.17,WNW,296,0.0,0.0,99,0.00,,,0.00,Wunderground v.1.15,2013-09-04 13:13:00,
2013-09-04 09:18:00,53.1,52.8,30.17,WNW,296,0.0,0.0,99,0.00,,,0.00,Wunderground v.1.15,2013-09-04 13:18:00,
2013-09-04 09:28:00,54.6,54.3,30.17,WNW,296,0.0,0.0,99,0.00,,,0.00,Wunderground v.1.15,2013-09-04 13:28:00,
2013-09-04 09:33:00,55.7,55.4,30.17,WNW,296,0.0,0.0,99,0.00,,,0.00,Wunderground v.1.15,2013-09-04 13:33:00,
2013-09-04 09:43:00,57.5,57.2,30.17,WNW,296,0.0,0.0,99,0.00,,,0.00,Wunderground v.1.15,2013-09-04 13:43:00,
2013-09-04 09:48:00,58.8,58.5,30.17,WNW,296,0.0,0.0,99,0.00,,,0.00,Wunderground v.1.15,2013-09-04 13:48:00,
2013-09-04 09:53:00,59.9,59.6,30.17,WNW,296,0.0,0.0,99,0.00,,,0.00,Wunderground v.1.15,2013-09-04 13:53:00,
2013-09-04 09:58:00,60.8,60.5,30.17,WNW,296,0.0,0.0,99,0.00,,,0.00,Wunderground v.1.15,2013-09-04 13:58:00,
2013-09-04 10:08:00,61.7,61.4,30.17,WNW,296,0.0,0.0,99,0.00,,,0.00,Wunderground v.1.15,2013-09-04 14:08:00,
2013-09-04 10:13:00,62.6,62.3,30.17,WNW,296,0.0,0.0,99,0.00,,,0.00,Wunderground v.1.15,2013-09-04 14:13:00,
2013-09-04 10:18:00,63.5,63.2,30.17,WNW,296,0.0,0.0,99,0.00,,,0.00,Wunderground v.1.15,2013-09-04 14:18:00,
2013-09-04 10:23:00,64.2,63.9,30.17,WNW,296,0.0,0.0,99,0.00,,,0.00,Wunderground v.1.15,2013-09-04 14:23:00,
2013-09-04 10:28:00,65.3,64.7,30.17,WNW,296,0.0,0.0,98,0.00,,,0.00,Wunderground v.1.15,2013-09-04 14:28:00,
2013-09-04 10:38:00,67.0,63.3,30.17,WNW,296,0.0,0.0,88,0.00,,,0.00,Wunderground v.1.15,2013-09-04 14:38:00,
2013-09-04 10:43:00,67.7,63.7,30.17,WNW,296,0.0,0.0,87,0.00,,,0.00,Wunderground v.1.15,2013-09-04 14:43:00,
2013-09-04 10:48:00,68.3,62.6,30.17,North,5,0.0,1.0,82,0.00,,,0.00,Wunderground v.1.15,2013-09-04 14:48:00,
2013-09-04 10:58:00,69.4,63.7,30.17,NNE,14,0.0,0.0,82,0.00,,,0.00,Wunderground v.1.15,2013-09-04 14:58:00,
2013-09-04 11:03:00,69.9,62.7,30.17,NNE,15,0.0,0.0,78,0.00,,,0.00,Wunderground v.1.15,2013-09-04 15:03:00,
2013-09-04 11:08:00,70.5,63.3,30.17,NNE,15,0.0,0.0,78,0.00,,,0.00,Wunderground v.1.15,2013-09-04 15:08:00,
2013-09-04 11:13:00,71.0,63.8,30.17,NNE,15,0.0,1.0,78,0.00,,,0.00,Wunderground v.1.15,2013-09-04 15:13:00,
2013-09-04 11:23:00,72.1,63.0,30.17,NNE,15,0.0,0.0,73,0.00,,,0.00,Wunderground v.1.15,2013-09-04 15:23:00,
2013-09-04 11:28:00,72.6,63.4,30.17,NNE,15,0.0,0.0,73,0.00,,,0.00,Wunderground v.1.15,2013-09-04 15:28:00,
2013-09-04 11:33:00,73.0,61.8,30.17,NNE,16,0.0,3.0,68,0.00,,,0.00,Wunderground v.1.15,2013-09-04 15:33:00,
2013-09-04 11:38:00,73.3,62.9,30.17,SSW,194,1.0,3.0,70,0.00,,,0.00,Wunderground v.1.15,2013-09-04 15:38:00,
2013-09-04 11:43:00,73.3,64.5,30.17,SSW,194,1.0,2.0,74,0.00,,,0.00,Wunderground v.1.15,2013-09-04 15:43:00,
2013-09-04 11:53:00,73.3,62.1,30.17,South,173,1.0,1.0,68,0.00,,,0.00,Wunderground v.1.15,2013-09-04 15:53:00,
2013-09-04 11:58:00,73.3,62.5,30.17,SSE,164,1.0,1.0,69,0.00,,,0.00,Wunderground v.1.15,2013-09-04 15:58:00,
2013-09-04 12:03:00,73.3,63.7,30.16,SSE,165,1.0,1.0,72,0.00,,,0.00,Wunderground v.1.15,2013-09-04 16:03:00,
2013-09-04 12:13:00,73.9,61.4,30.16,SSW,202,0.0,0.0,65,0.00,,,0.00,Wunderground v.1.15,2013-09-04 16:13:00,
2013-09-04 12:18:00,74.5,62.4,30.16,SSE,155,0.0,0.0,66,0.00,,,0.00,Wunderground v.1.15,2013-09-04 16:18:00,
2013-09-04 12:23:00,74.9,62.3,30.16,South,182,1.0,1.0,65,0.00,,,0.00,Wunderground v.1.15,2013-09-04 16:23:00,
2013-09-04 12:33:00,75.1,61.2,30.16,SE,146,0.0,0.0,62,0.00,,,0.00,Wunderground v.1.15,2013-09-04 16:33:00,
2013-09-04 12:38:00,75.2,62.2,30.16,SSE,157,0.0,0.0,64,0.00,,,0.00,Wunderground v.1.15,2013-09-04 16:38:00,
2013-09-04 12:43:00,75.2,61.7,30.16,SE,131,0.0,0.0,63,0.00,,,0.00,Wunderground v.1.15,2013-09-04 16:43:00,
2013-09-04 12:53:00,75.9,62.8,30.16,ENE,59,1.0,1.0,64,0.00,,,0.00,Wunderground v.1.15,2013-09-04 16:53:00,
2013-09-04 12:58:00,76.1,63.0,30.16,ENE,59,0.0,1.0,64,0.00,,,0.00,Wunderground v.1.15,2013-09-04 16:58:00,
2013-09-04 13:08:00,76.5,65.1,30.15,South,182,2.0,2.0,68,0.00,,,0.00,Wunderground v.1.15,2013-09-04 17:08:00,
2013-09-04 13:13:00,76.5,62.5,30.15,South,183,1.0,1.0,62,0.00,,,0.00,Wunderground v.1.15,2013-09-04 17:13:00,
2013-09-04 13:18:00,76.6,66.5,30.15,SE,137,0.0,1.0,71,0.00,,,0.00,Wunderground v.1.15,2013-09-04 17:18:00,
2013-09-04 13:28:00,76.8,63.2,30.15,SSE,153,0.0,0.0,63,0.00,,,0.00,Wunderground v.1.15,2013-09-04 17:28:00,
2013-09-04 13:33:00,77.2,63.6,30.15,SSE,151,0.0,1.0,63,0.00,,,0.00,Wunderground v.1.15,2013-09-04 17:33:00,
2013-09-04 13:43:00,77.9,65.2,30.14,NW,314,1.0,1.0,65,0.00,,,0.00,Wunderground v.1.15,2013-09-04 17:43:00,
2013-09-04 13:48:00,78.3,66.9,30.14,North,355,1.0,1.0,68,0.00,,,0.00,Wunderground v.1.15,2013-09-04 17:48:00,
2013-09-04 13:53:00,78.4,63.8,30.14,SSW,194,1.0,1.0,61,0.00,,,0.00,Wunderground v.1.15,2013-09-04 17:53:00,
2013-09-04 14:03:00,78.7,65.5,30.14,NNW,338,0.0,1.0,64,0.00,,,0.00,Wunderground v.1.15,2013-09-04 18:03:00,
2013-09-04 14:08:00,78.8,64.7,30.14,WSW,249,0.0,1.0,62,0.00,,,0.00,Wunderground v.1.15,2013-09-04 18:08:00,
2013-09-04 14:13:00,78.4,64.8,30.14,WSW,249,0.0,0.0,63,0.00,,,0.00,Wunderground v.1.15,2013-09-04 18:13:00,
2013-09-04 14:23:00,77.7,65.4,30.14,NNW,336,0.0,0.0,66,0.00,,,0.00,Wunderground v.1.15,2013-09-04 18:23:00,
2013-09-04 14:28:00,77.6,66.6,30.14,NNW,336,0.0,0.0,69,0.00,,,0.00,Wunderground v.1.15,2013-09-04 18:28:00,
2013-09-04 14:33:00,77.5,64.8,30.14,NNW,336,0.0,0.0,65,0.00,,,0.00,Wunderground v.1.15,2013-09-04 18:33:00,
2013-09-04 14:38:00,77.5,62.5,30.14,North,11,0.0,0.0,60,0.00,,,0.00,Wunderground v.1.15,2013-09-04 18:38:00,
2013-09-04 14:48:00,78.0,65.7,30.14,South,173,1.0,4.0,66,0.00,,,0.00,Wunderground v.1.15,2013-09-04 18:48:00,
2013-09-04 14:53:00,77.7,63.2,30.14,South,179,1.0,1.0,61,0.00,,,0.00,Wunderground v.1.15,2013-09-04 18:53:00,
2013-09-04 14:58:00,77.4,63.4,30.14,South,179,1.0,1.0,62,0.00,,,0.00,Wunderground v.1.15,2013-09-04 18:58:00,
2013-09-04 15:03:00,77.3,64.2,30.13,South,179,0.0,1.0,64,0.00,,,0.00,Wunderground v.1.15,2013-09-04 19:03:00,
2013-09-04 15:13:00,77.2,64.1,30.13,South,172,1.0,1.0,64,0.00,,,0.00,Wunderground v.1.15,2013-09-04 19:13:00,
2013-09-04 15:18:00,77.2,64.5,30.13,SW,229,1.0,1.0,65,0.00,,,0.00,Wunderground v.1.15,2013-09-04 19:18:00,
2013-09-04 15:23:00,77.1,64.4,30.13,SSW,209,0.0,0.0,65,0.00,,,0.00,Wunderground v.1.15,2013-09-04 19:23:00,
2013-09-04 15:28:00,77.1,66.1,30.13,SSW,209,0.0,0.0,69,0.00,,,0.00,Wunderground v.1.15,2013-09-04 19:28:00,
2013-09-04 15:33:00,76.6,66.5,30.13,SSW,209,0.0,0.0,71,0.00,,,0.00,Wunderground v.1.15,2013-09-04 19:33:00,
2013-09-04 15:43:00,76.2,66.9,30.13,SSW,209,0.0,0.0,73,0.00,,,0.00,Wunderground v.1.15,2013-09-04 19:43:00,
2013-09-04 15:48:00,76.3,65.8,30.12,SSW,209,0.0,0.0,70,0.00,,,0.00,Wunderground v.1.15,2013-09-04 19:48:00,
2013-09-04 15:53:00,76.6,65.7,30.12,SSW,209,0.0,1.0,69,0.00,,,0.00,Wunderground v.1.15,2013-09-04 19:53:00,
2013-09-04 15:58:00,77.0,66.9,30.12,SSW,209,0.0,1.0,71,0.00,,,0.00,Wunderground v.1.15,2013-09-04 19:58:00,
2013-09-04 16:08:00,77.4,66.0,30.12,SSW,209,0.0,0.0,68,0.00,,,0.00,Wunderground v.1.15,2013-09-04 20:08:00,
2013-09-04 16:13:00,77.4,65.6,30.12,SSW,209,0.0,0.0,67,0.00,,,0.00,Wunderground v.1.15,2013-09-04 20:13:00,
2013-09-04 16:18:00,77.2,64.5,30.12,SSW,210,0.0,0.0,65,0.00,,,0.00,Wunderground v.1.15,2013-09-04 20:18:00,
2013-09-04 16:23:00,76.9,64.2,30.12,SSW,210,0.0,0.0,65,0.00,,,0.00,Wunderground v.1.15,2013-09-04 20:23:00,
2013-09-04 16:28:00,76.6,63.1,30.12,SSW,210,0.0,0.0,63,0.00,,,0.00,Wunderground v.1.15,2013-09-04 20:28:00,
2013-09-04 16:43:00,75.7,62.2,30.12,SSW,210,0.0,0.0,63,0.00,,,0.00,Wunderground v.1.15,2013-09-04 20:43:00,
2013-09-04 16:48:00,75.5,62.5,30.12,SSW,210,0.0,0.0,64,0.00,,,0.00,Wunderground v.1.15,2013-09-04 20:48:00,
2013-09-04 16:53:00,75.3,63.6,30.12,SSW,210,0.0,0.0,67,0.00,,,0.00,Wunderground v.1.15,2013-09-04 20:53:00,
2013-09-04 16:58:00,75.0,63.7,30.12,SSW,210,0.0,0.0,68,0.00,,,0.00,Wunderground v.1.15,2013-09-04 20:58:00,
2013-09-04 17:03:00,74.7,63.4,30.12,SSW,210,0.0,0.0,68,0.00,,,0.00,Wunderground v.1.15,2013-09-04 21:03:00,
2013-09-04 17:13:00,74.0,64.0,30.12,SSW,210,0.0,0.0,71,0.00,,,0.00,Wunderground v.1.15,2013-09-04 21:13:00,
2013-09-04 17:18:00,73.7,64.1,30.12,SSW,210,0.0,0.0,72,0.00,,,0.00,Wunderground v.1.15,2013-09-04 21:18:00,
2013-09-04 17:23:00,73.3,63.7,30.13,SSW,210,0.0,0.0,72,0.00,,,0.00,Wunderground v.1.15,2013-09-04 21:23:00,
2013-09-04 17:28:00,72.9,61.7,30.12,SSW,210,0.0,0.0,68,0.00,,,0.00,Wunderground v.1.15,2013-09-04 21:28:00,
2013-09-04 17:38:00,72.3,61.1,30.13,SSW,210,0.0,0.0,68,0.00,,,0.00,Wunderground v.1.15,2013-09-04 21:38:00,
2013-09-04 17:43:00,72.1,61.0,30.12,SSW,210,0.0,0.0,68,0.00,,,0.00,Wunderground v.1.15,2013-09-04 21:43:00,
2013-09-04 17:48:00,71.9,60.3,30.12,SSW,210,0.0,0.0,67,0.00,,,0.00,Wunderground v.1.15,2013-09-04 21:48:00,
2013-09-04 17:53:00,71.6,60.9,30.13,SSW,210,0.0,0.0,69,0.00,,,0.00,Wunderground v.1.15,2013-09-04 21:53:00,
2013-09-04 18:03:00,70.8,61.7,30.13,SSW,210,0.0,0.0,73,0.00,,,0.00,Wunderground v.1.15,2013-09-04 22:03:00,
2013-09-04 18:08:00,70.1,61.0,30.13,SSW,210,0.0,0.0,73,0.00,,,0.00,Wunderground v.1.15,2013-09-04 22:08:00,
2013-09-04 18:13:00,69.4,60.8,30.13,SSW,210,0.0,0.0,74,0.00,,,0.00,Wunderground v.1.15,2013-09-04 22:13:00,
2013-09-04 18:18:00,68.8,60.9,30.13,SSW,210,0.0,0.0,76,0.00,,,0.00,Wunderground v.1.15,2013-09-04 22:18:00,
2013-09-04 18:28:00,67.5,60.4,30.13,SSW,210,0.0,0.0,78,0.00,,,0.00,Wunderground v.1.15,2013-09-04 22:28:00,
2013-09-04 18:33:00,66.8,59.7,30.13,SSW,210,0.0,0.0,78,0.00,,,0.00,Wunderground v.1.15,2013-09-04 22:33:00,
2013-09-04 18:38:00,66.1,59.4,30.13,SSW,210,0.0,0.0,79,0.00,,,0.00,Wunderground v.1.15,2013-09-04 22:38:00,
2013-09-04 18:48:00,64.9,58.6,30.13,SSW,210,0.0,0.0,80,0.00,,,0.00,Wunderground v.1.15,2013-09-04 22:48:00,
2013-09-04 18:53:00,64.5,58.9,30.14,SSW,210,0.0,0.0,82,0.00,,,0.00,Wunderground v.1.15,2013-09-04 22:53:00,
2013-09-04 18:58:00,64.0,58.4,30.13,SSW,210,0.0,0.0,82,0.00,,,0.00,Wunderground v.1.15,2013-09-04 22:58:00,
2013-09-04 19:03:00,63.7,58.4,30.14,SSW,210,0.0,0.0,83,0.00,,,0.00,Wunderground v.1.15,2013-09-04 23:03:00,
2013-09-04 19:08:00,63.3,58.4,30.14,SSW,210,0.0,0.0,84,0.00,,,0.00,Wunderground v.1.15,2013-09-04 23:08:00,
2013-09-04 19:18:00,62.7,58.1,30.14,SSW,210,0.0,0.0,85,0.00,,,0.00,Wunderground v.1.15,2013-09-04 23:18:00,
2013-09-04 19:23:00,62.5,58.3,30.14,SSW,210,0.0,0.0,86,0.00,,,0.00,Wunderground v.1.15,2013-09-04 23:23:00,
2013-09-04 19:28:00,62.2,57.6,30.14,SSW,211,0.0,0.0,85,0.00,,,0.00,Wunderground v.1.15,2013-09-04 23:28:00,
2013-09-04 19:33:00,61.9,57.7,30.14,SSW,211,0.0,0.0,86,0.00,,,0.00,Wunderground v.1.15,2013-09-04 23:33:00,
2013-09-04 19:43:00,61.4,57.5,30.14,SSW,211,0.0,0.0,87,0.00,,,0.00,Wunderground v.1.15,2013-09-04 23:43:00,
2013-09-04 19:48:00,61.1,57.2,30.15,SSW,211,0.0,0.0,87,0.00,,,0.00,Wunderground v.1.15,2013-09-04 23:48:00,
2013-09-04 19:53:00,60.7,57.1,30.15,SSW,211,0.0,0.0,88,0.00,,,0.00,Wunderground v.1.15,2013-09-04 23:53:00,
2013-09-04 19:58:00,60.4,56.8,30.15,SSW,211,0.0,0.0,88,0.00,,,0.00,Wunderground v.1.15,2013-09-04 23:58:00,
2013-09-04 20:08:00,59.8,56.6,30.15,SSW,211,0.0,0.0,89,0.00,,,0.00,Wunderground v.1.15,2013-09-05 00:08:00,
2013-09-04 20:13:00,59.4,56.5,30.15,SSW,211,0.0,0.0,90,0.00,,,0.00,Wunderground v.1.15,2013-09-05 00:13:00,
2013-09-04 20:18:00,59.2,56.3,30.16,SSW,211,0.0,0.0,90,0.00,,,0.00,Wunderground v.1.15,2013-09-05 00:18:00,
2013-09-04 20:28:00,58.7,56.1,30.16,SSW,211,0.0,0.0,91,0.00,,,0.00,Wunderground v.1.15,2013-09-05 00:28:00,
2013-09-04 20:33:00,58.4,55.8,30.16,SSW,211,0.0,0.0,91,0.00,,,0.00,Wunderground v.1.15,2013-09-05 00:33:00,
2013-09-04 20:43:00,57.9,55.3,30.16,SSW,211,0.0,0.0,91,0.00,,,0.00,Wunderground v.1.15,2013-09-05 00:43:00,
2013-09-04 20:48:00,57.7,55.4,30.17,SSW,211,0.0,0.0,92,0.00,,,0.00,Wunderground v.1.15,2013-09-05 00:48:00,
2013-09-04 20:58:00,57.3,55.3,30.17,SSW,211,0.0,0.0,93,0.00,,,0.00,Wunderground v.1.15,2013-09-05 00:58:00,
2013-09-04 21:03:00,57.1,55.1,30.17,SSW,211,0.0,0.0,93,0.00,,,0.00,Wunderground v.1.15,2013-09-05 01:03:00,
2013-09-04 21:08:00,57.0,55.0,30.18,SSW,211,0.0,0.0,93,0.00,,,0.00,Wunderground v.1.15,2013-09-05 01:08:00,
2013-09-04 21:18:00,56.6,54.9,30.18,SSW,211,0.0,0.0,94,0.00,,,0.00,Wunderground v.1.15,2013-09-05 01:18:00,
2013-09-04 21:23:00,56.4,54.7,30.19,SSW,211,0.0,0.0,94,0.00,,,0.00,Wunderground v.1.15,2013-09-05 01:23:00,
2013-09-04 21:28:00,56.3,54.6,30.19,SSW,211,0.0,0.0,94,0.00,,,0.00,Wunderground v.1.15,2013-09-05 01:28:00,
2013-09-04 21:38:00,56.0,54.3,30.19,SSW,211,0.0,0.0,94,0.00,,,0.00,Wunderground v.1.15,2013-09-05 01:38:00,
2013-09-04 21:43:00,55.9,54.2,30.19,SSW,211,0.0,0.0,94,0.00,,,0.00,Wunderground v.1.15,2013-09-05 01:43:00,
2013-09-04 21:48:00,55.8,54.1,30.19,SSW,211,0.0,0.0,94,0.00,,,0.00,Wunderground v.1.15,2013-09-05 01:48:00,
2013-09-04 21:58:00,55.5,53.8,30.20,SSW,211,0.0,0.0,94,0.00,,,0.00,Wunderground v.1.15,2013-09-05 01:58:00,
2013-09-04 22:03:00,55.3,53.6,30.20,SSW,211,0.0,0.0,94,0.00,,,0.00,Wunderground v.1.15,2013-09-05 02:03:00,
2013-09-04 22:08:00,55.0,53.3,30.20,SSW,211,0.0,0.0,94,0.00,,,0.00,Wunderground v.1.15,2013-09-05 02:08:00,
2013-09-04 22:18:00,54.9,53.5,30.20,SSW,211,0.0,0.0,95,0.00,,,0.00,Wunderground v.1.15,2013-09-05 02:18:00,
2013-09-04 22:23:00,54.9,53.5,30.20,SSW,211,0.0,0.0,95,0.00,,,0.00,Wunderground v.1.15,2013-09-05 02:23:00,
2013-09-04 22:28:00,54.8,53.4,30.20,SSW,211,0.0,0.0,95,0.00,,,0.00,Wunderground v.1.15,2013-09-05 02:28:00,
2013-09-04 22:33:00,54.7,53.3,30.20,SSW,211,0.0,0.0,95,0.00,,,0.00,Wunderground v.1.15,2013-09-05 02:33:00,
2013-09-04 22:43:00,54.5,53.1,30.21,SSW,211,0.0,0.0,95,0.00,,,0.00,Wunderground v.1.15,2013-09-05 02:43:00,
2013-09-04 22:48:00,54.4,53.0,30.21,SSW,211,0.0,0.0,95,0.00,,,0.00,Wunderground v.1.15,2013-09-05 02:48:00,
2013-09-04 22:53:00,54.3,52.9,30.21,SSW,211,0.0,0.0,95,0.00,,,0.00,Wunderground v.1.15,2013-09-05 02:53:00,
2013-09-04 22:58:00,54.2,52.8,30.21,SSW,211,0.0,0.0,95,0.00,,,0.00,Wunderground v.1.15,2013-09-05 02:58:00,
2013-09-04 23:08:00,53.9,52.5,30.21,SSW,211,0.0,0.0,95,0.00,,,0.00,Wunderground v.1.15,2013-09-05 03:08:00,
2013-09-04 23:13:00,53.8,52.4,30.21,SSW,211,0.0,0.0,95,0.00,,,0.00,Wunderground v.1.15,2013-09-05 03:13:00,
2013-09-04 23:18:00,53.6,52.2,30.21,SSW,211,0.0,0.0,95,0.00,,,0.00,Wunderground v.1.15,2013-09-05 03:18:00,
2013-09-04 23:23:00,53.6,52.2,30.22,SSW,211,0.0,0.0,95,0.00,,,0.00,Wunderground v.1.15,2013-09-05 03:23:00,
2013-09-04 23:33:00,53.3,51.9,30.22,SSW,211,0.0,0.0,95,0.00,,,0.00,Wunderground v.1.15,2013-09-05 03:33:00,
2013-09-04 23:38:00,53.2,52.1,30.22,SSW,211,0.0,0.0,96,0.00,,,0.00,Wunderground v.1.15,2013-09-05 03:38:00,
2013-09-04 23:43:00,53.1,51.7,30.21,SSW,211,0.0,0.0,95,0.00,,,0.00,Wunderground v.1.15,2013-09-05 03:43:00,
2013-09-04 23:48:00,52.9,51.5,30.21,SSW,211,0.0,0.0,95,0.00,,,0.00,Wunderground v.1.15,2013-09-05 03:48:00,
2013-09-04 23:58:00,52.7,51.6,30.21,SSW,211,0.0,0.0,96,0.00,,,0.00,Wunderground v.1.15,2013-09-05 03:58:00,